Simultaneous Nadir Overpasses (SNOs) Predictions

Prediction of SNOs between FY3D and AQUA Satellite Orbit:

Table of predicted SNOs for the next 14.0 days since TLE Epoch: 7/8/2023
Index Date (FY3D) Time (FY3D) Lat,Lon (FY3D) SZA (FY3D ) Date (AQUA) Time (AQUA) Lat,Lon (AQUA) SZA (AQUA ) Distance(km) Time Diff (sec)
1 07/10/2023 01:32:41 78.65, 138.21 57.06 07/10/2023 01:32:50 78.64, 138.32 57.03 2.65 9
2 07/10/2023 02:23:15 -78.23, -51.96 123.51 07/10/2023 02:22:04 -78.22, -51.87 123.51 2.23 71
3 07/12/2023 15:18:15 -78.54, 112.51 122.75 07/12/2023 15:18:17 -78.55, 112.47 122.75 0.95 2
4 07/15/2023 04:13:15 -78.85, -83.16 121.94 07/15/2023 04:14:29 -78.86, -83.24 121.96 1.92 74
5 07/15/2023 05:03:53 78.54, 86.17 57.63 07/15/2023 05:03:46 78.54, 86.18 57.63 0.42 7
6 07/17/2023 17:58:54 78.89,-109.78 58.53 07/17/2023 17:59:58 78.88,-109.74 58.51 0.71 64
7 07/17/2023 18:49:30 -78.56, 59.70 121.93 07/17/2023 18:49:14 -78.55, 59.79 121.94 2.10 16
8 07/20/2023 07:44:28 -78.80,-135.54 121.14 07/20/2023 07:45:23 -78.80,-135.59 121.15 1.31 55



Historial Predications of SNOs between FY3D and AQUA
